Time,TemperatureF,DewpointF,PressureIn,WindDirection,WindDirectionDegrees,WindSpeedMPH,WindSpeedGustMPH,Humidity,HourlyPrecipIn,Conditions,Clouds,dailyrainin,SoftwareType,DateUTC
2013-01-15 00:04:00,32.8,21.6,30.24,NW,304,1.0,1.0,63,0.00,CLR,,0.00,WeatherDisplay:10.37,2013-01-15 05:04:00,
2013-01-15 00:09:00,32.7,21.5,30.24,NW,304,0.0,1.0,63,0.00,CLR,,0.00,WeatherDisplay:10.37,2013-01-15 05:09:00,
2013-01-15 00:14:00,32.5,21.3,30.24,NW,304,0.0,1.0,63,0.00,CLR,,0.00,WeatherDisplay:10.37,2013-01-15 05:14:00,
2013-01-15 00:19:00,32.5,21.3,30.24,NW,304,0.0,2.0,63,0.00,CLR,,0.00,WeatherDisplay:10.37,2013-01-15 05:19:00,
2013-01-15 00:24:00,32.7,21.5,30.24,NW,304,0.0,3.0,63,0.00,CLR,,0.00,WeatherDisplay:10.37,2013-01-15 05:24:00,
2013-01-15 00:29:00,32.6,21.4,30.24,NW,304,0.0,3.0,63,0.00,CLR,,0.00,WeatherDisplay:10.37,2013-01-15 05:29:00,
2013-01-15 00:34:00,32.4,21.2,30.24,NW,304,0.0,2.0,63,0.00,CLR,,0.00,WeatherDisplay:10.37,2013-01-15 05:34:00,
2013-01-15 00:39:00,32.5,21.3,30.24,NW,304,1.0,3.0,63,0.00,CLR,,0.00,WeatherDisplay:10.37,2013-01-15 05:39:00,
2013-01-15 00:44:00,32.5,21.3,30.24,NW,304,1.0,3.0,63,0.00,CLR,,0.00,WeatherDisplay:10.37,2013-01-15 05:44:00,
2013-01-15 00:49:00,32.6,21.4,30.24,NW,304,1.0,3.0,63,0.00,CLR,,0.00,WeatherDisplay:10.37,2013-01-15 05:49:00,
2013-01-15 00:54:00,32.7,21.5,30.24,NW,304,1.0,2.0,63,0.00,CLR,,0.00,WeatherDisplay:10.37,2013-01-15 05:54:00,
2013-01-15 00:59:00,32.9,21.7,30.24,NW,309,0.0,5.0,63,0.00,CLR,,0.00,WeatherDisplay:10.37,2013-01-15 05:59:00,
2013-01-15 01:04:00,32.7,20.7,30.26,NW,312,1.0,3.0,61,0.00,CLR,,0.00,WeatherDisplay:10.37,2013-01-15 06:04:00,
2013-01-15 01:09:00,32.6,20.6,30.26,NW,313,0.0,1.0,61,0.00,CLR,,0.00,WeatherDisplay:10.37,2013-01-15 06:09:00,
2013-01-15 01:14:00,32.7,20.7,30.26,NW,313,1.0,2.0,61,0.00,CLR,,0.00,WeatherDisplay:10.37,2013-01-15 06:14:00,
2013-01-15 01:19:00,32.4,20.5,30.26,NW,313,0.0,2.0,61,0.00,CLR,,0.00,WeatherDisplay:10.37,2013-01-15 06:19:00,
2013-01-15 01:24:00,32.5,20.5,30.26,NW,313,0.0,2.0,61,0.00,CLR,,0.00,WeatherDisplay:10.37,2013-01-15 06:24:00,
2013-01-15 01:29:00,32.4,20.4,30.26,NW,313,1.0,2.0,61,0.00,CLR,,0.00,WeatherDisplay:10.37,2013-01-15 06:29:00,
2013-01-15 01:34:00,32.3,20.3,30.26,NW,313,0.0,2.0,61,0.00,CLR,,0.00,WeatherDisplay:10.37,2013-01-15 06:34:00,
2013-01-15 01:39:00,32.2,20.2,30.26,NW,313,0.0,2.0,61,0.00,CLR,,0.00,WeatherDisplay:10.37,2013-01-15 06:39:00,
2013-01-15 01:49:00,32.0,20.1,30.26,NW,313,0.0,2.0,61,0.00,CLR,,0.00,WeatherDisplay:10.37,2013-01-15 06:49:00,
2013-01-15 01:54:00,32.2,20.3,30.26,NW,313,1.0,3.0,61,0.00,CLR,,0.00,WeatherDisplay:10.37,2013-01-15 06:54:00,
2013-01-15 01:59:00,32.3,20.3,30.26,NW,313,0.0,3.0,61,0.00,CLR,,0.00,WeatherDisplay:10.37,2013-01-15 06:59:00,
2013-01-15 02:04:00,32.1,20.2,30.24,NW,313,1.0,3.0,61,0.00,CLR,,0.00,WeatherDisplay:10.37,2013-01-15 07:04:00,
2013-01-15 02:09:00,31.9,20.0,30.24,NW,313,1.0,2.0,61,0.00,CLR,,0.00,WeatherDisplay:10.37,2013-01-15 07:09:00,
2013-01-15 02:14:00,32.0,20.1,30.24,NW,313,1.0,3.0,61,0.00,CLR,,0.00,WeatherDisplay:10.37,2013-01-15 07:14:00,
2013-01-15 02:19:00,31.9,20.0,30.24,NW,313,0.0,2.0,61,0.00,CLR,,0.00,WeatherDisplay:10.37,2013-01-15 07:19:00,
2013-01-15 02:29:00,31.7,19.8,30.24,NW,313,1.0,3.0,61,0.00,CLR,,0.00,WeatherDisplay:10.37,2013-01-15 07:29:00,
2013-01-15 02:34:00,31.8,19.9,30.24,NW,313,2.0,3.0,61,0.00,CLR,,0.00,WeatherDisplay:10.37,2013-01-15 07:34:00,
2013-01-15 02:39:00,31.8,19.9,30.24,NW,313,2.0,5.0,61,0.00,CLR,,0.00,WeatherDisplay:10.37,2013-01-15 07:39:00,
2013-01-15 02:49:00,31.7,19.8,30.24,NW,313,1.0,2.0,61,0.00,CLR,,0.00,WeatherDisplay:10.37,2013-01-15 07:49:00,
2013-01-15 02:54:00,31.7,19.8,30.24,NW,313,2.0,3.0,61,0.00,CLR,,0.00,WeatherDisplay:10.37,2013-01-15 07:54:00,
2013-01-15 03:04:00,31.6,21.5,30.26,NW,313,0.0,4.0,66,0.00,CLR,,0.00,WeatherDisplay:10.37,2013-01-15 08:04:00,
2013-01-15 03:09:00,31.5,21.5,30.26,NW,313,0.0,1.0,66,0.00,CLR,,0.00,WeatherDisplay:10.37,2013-01-15 08:09:00,
2013-01-15 03:14:00,31.4,21.3,30.26,NW,313,0.0,1.0,66,0.00,CLR,,0.00,WeatherDisplay:10.37,2013-01-15 08:14:00,
2013-01-15 03:19:00,31.5,21.4,30.26,NW,313,0.0,0.0,66,0.00,CLR,,0.00,WeatherDisplay:10.37,2013-01-15 08:19:00,
2013-01-15 03:24:00,31.1,21.1,30.26,NW,313,0.0,1.0,66,0.00,CLR,,0.00,WeatherDisplay:10.37,2013-01-15 08:24:00,
2013-01-15 03:29:00,31.1,21.1,30.26,NW,313,0.0,1.0,66,0.00,CLR,,0.00,WeatherDisplay:10.37,2013-01-15 08:29:00,
2013-01-15 03:39:00,31.3,21.2,30.26,NW,313,1.0,2.0,66,0.00,CLR,,0.00,WeatherDisplay:10.37,2013-01-15 08:39:00,
2013-01-15 03:49:00,31.1,21.0,30.26,NW,313,0.0,1.0,66,0.00,CLR,,0.00,WeatherDisplay:10.37,2013-01-15 08:49:00,
2013-01-15 03:59:00,30.9,20.9,30.26,NW,313,0.0,1.0,66,0.00,CLR,,0.00,WeatherDisplay:10.37,2013-01-15 08:59:00,
2013-01-15 04:04:00,30.5,22.6,30.23,NW,313,0.0,0.0,72,0.00,FEW,,0.00,WeatherDisplay:10.37,2013-01-15 09:04:00,
2013-01-15 04:09:00,30.4,22.5,30.23,NW,313,0.0,0.0,72,0.00,FEW,,0.00,WeatherDisplay:10.37,2013-01-15 09:09:00,
2013-01-15 04:14:00,30.4,22.4,30.23,NW,313,0.0,1.0,72,0.00,FEW,,0.00,WeatherDisplay:10.37,2013-01-15 09:14:00,
2013-01-15 04:19:00,30.5,22.6,30.23,NW,313,0.0,1.0,72,0.00,FEW,,0.00,WeatherDisplay:10.37,2013-01-15 09:19:00,
2013-01-15 04:24:00,30.2,22.3,30.23,NW,313,0.0,0.0,72,0.00,FEW,,0.00,WeatherDisplay:10.37,2013-01-15 09:24:00,
2013-01-15 04:29:00,29.9,21.9,30.23,NW,313,0.0,0.0,72,0.00,FEW,,0.00,WeatherDisplay:10.37,2013-01-15 09:29:00,
2013-01-15 04:34:00,29.8,21.9,30.23,NW,313,0.0,1.0,72,0.00,FEW,,0.00,WeatherDisplay:10.37,2013-01-15 09:34:00,
2013-01-15 04:39:00,29.8,21.9,30.23,NW,313,0.0,1.0,72,0.00,FEW,,0.00,WeatherDisplay:10.37,2013-01-15 09:39:00,
2013-01-15 04:49:00,29.3,21.4,30.23,NW,313,0.0,0.0,72,0.00,FEW,,0.00,WeatherDisplay:10.37,2013-01-15 09:49:00,
2013-01-15 04:54:00,28.6,20.7,30.23,NW,313,0.0,0.0,72,0.00,FEW,,0.00,WeatherDisplay:10.37,2013-01-15 09:54:00,
2013-01-15 04:59:00,28.3,20.4,30.23,NW,313,0.0,0.0,72,0.00,FEW,,0.00,WeatherDisplay:10.37,2013-01-15 09:59:00,
2013-01-15 05:04:00,28.1,23.0,30.23,NW,313,0.0,0.0,81,0.00,FEW,,0.00,WeatherDisplay:10.37,2013-01-15 10:04:00,
2013-01-15 05:09:00,28.0,22.9,30.23,NW,313,0.0,1.0,81,0.00,FEW,,0.00,WeatherDisplay:10.37,2013-01-15 10:09:00,
2013-01-15 05:14:00,28.1,23.1,30.23,NW,313,0.0,1.0,81,0.00,FEW,,0.00,WeatherDisplay:10.37,2013-01-15 10:14:00,
2013-01-15 05:19:00,27.7,22.7,30.23,NW,313,0.0,0.0,81,0.00,FEW,,0.00,WeatherDisplay:10.37,2013-01-15 10:19:00,
2013-01-15 05:24:00,26.6,21.6,30.23,NW,313,0.0,0.0,81,0.00,FEW,,0.00,WeatherDisplay:10.37,2013-01-15 10:24:00,
2013-01-15 05:29:00,26.4,21.4,30.23,NW,313,0.0,0.0,81,0.00,FEW,,0.00,WeatherDisplay:10.37,2013-01-15 10:29:00,
2013-01-15 05:34:00,26.3,21.2,30.23,NW,313,0.0,0.0,81,0.00,FEW,,0.00,WeatherDisplay:10.37,2013-01-15 10:34:00,
2013-01-15 05:39:00,26.1,21.0,30.23,NW,313,0.0,0.0,81,0.00,FEW,,0.00,WeatherDisplay:10.37,2013-01-15 10:39:00,
2013-01-15 05:44:00,25.7,20.7,30.23,NW,313,0.0,0.0,81,0.00,FEW,,0.00,WeatherDisplay:10.37,2013-01-15 10:44:00,
2013-01-15 05:49:00,25.8,20.8,30.23,NW,313,0.0,1.0,81,0.00,FEW,,0.00,WeatherDisplay:10.37,2013-01-15 10:49:00,
2013-01-15 05:54:00,25.9,20.9,30.23,NW,313,0.0,0.0,81,0.00,FEW,,0.00,WeatherDisplay:10.37,2013-01-15 10:54:00,
2013-01-15 05:59:00,25.9,20.9,30.23,NW,313,0.0,0.0,81,0.00,FEW,,0.00,WeatherDisplay:10.37,2013-01-15 10:59:00,
2013-01-15 06:04:00,25.5,23.2,30.23,NW,313,0.0,0.0,91,0.00,CLR,,0.00,WeatherDisplay:10.37,2013-01-15 11:04:00,
2013-01-15 06:09:00,25.0,22.8,30.23,NW,313,0.0,1.0,91,0.00,CLR,,0.00,WeatherDisplay:10.37,2013-01-15 11:09:00,
2013-01-15 06:14:00,25.3,23.1,30.23,NW,313,0.0,0.0,91,0.00,CLR,,0.00,WeatherDisplay:10.37,2013-01-15 11:14:00,
2013-01-15 06:19:00,25.4,23.2,30.23,NW,313,0.0,0.0,91,0.00,CLR,,0.00,WeatherDisplay:10.37,2013-01-15 11:19:00,
2013-01-15 06:24:00,25.4,23.1,30.23,NW,313,0.0,0.0,91,0.00,CLR,,0.00,WeatherDisplay:10.37,2013-01-15 11:24:00,
2013-01-15 06:29:00,24.8,22.6,30.23,NW,313,0.0,0.0,91,0.00,CLR,,0.00,WeatherDisplay:10.37,2013-01-15 11:29:00,
2013-01-15 06:34:00,25.1,22.8,30.23,NW,313,0.0,0.0,91,0.00,CLR,,0.00,WeatherDisplay:10.37,2013-01-15 11:34:00,
2013-01-15 06:39:00,25.2,23.0,30.23,NW,313,0.0,0.0,91,0.00,CLR,,0.00,WeatherDisplay:10.37,2013-01-15 11:39:00,
2013-01-15 06:44:00,24.9,22.7,30.23,NW,313,0.0,0.0,91,0.00,CLR,,0.00,WeatherDisplay:10.37,2013-01-15 11:44:00,
2013-01-15 06:49:00,25.2,22.9,30.23,NW,313,0.0,0.0,91,0.00,CLR,,0.00,WeatherDisplay:10.37,2013-01-15 11:49:00,
2013-01-15 06:54:00,25.1,22.8,30.23,NW,313,0.0,0.0,91,0.00,CLR,,0.00,WeatherDisplay:10.37,2013-01-15 11:54:00,
2013-01-15 06:59:00,24.7,22.4,30.23,NW,313,0.0,0.0,91,0.00,CLR,,0.00,WeatherDisplay:10.37,2013-01-15 11:59:00,
2013-01-15 07:04:00,24.8,22.5,30.27,NW,313,0.0,0.0,91,0.00,CLR,,0.00,WeatherDisplay:10.37,2013-01-15 12:04:00,
2013-01-15 07:09:00,24.9,22.7,30.27,NW,313,0.0,0.0,91,0.00,CLR,,0.00,WeatherDisplay:10.37,2013-01-15 12:09:00,
2013-01-15 07:14:00,25.1,22.9,30.27,NW,313,0.0,0.0,91,0.00,CLR,,0.00,WeatherDisplay:10.37,2013-01-15 12:14:00,
2013-01-15 07:19:00,25.0,22.7,30.27,NW,313,0.0,0.0,91,0.00,CLR,,0.00,WeatherDisplay:10.37,2013-01-15 12:19:00,
2013-01-15 07:24:00,24.5,22.2,30.27,NW,313,0.0,0.0,91,0.00,CLR,,0.00,WeatherDisplay:10.37,2013-01-15 12:24:00,
2013-01-15 07:29:00,24.7,22.5,30.27,NW,313,0.0,0.0,91,0.00,CLR,,0.00,WeatherDisplay:10.37,2013-01-15 12:29:00,
2013-01-15 07:34:00,25.1,22.8,30.27,NW,313,0.0,0.0,91,0.00,CLR,,0.00,WeatherDisplay:10.37,2013-01-15 12:34:00,
2013-01-15 07:39:00,25.2,22.9,30.27,NW,313,0.0,0.0,91,0.00,CLR,,0.00,WeatherDisplay:10.37,2013-01-15 12:39:00,
2013-01-15 07:44:00,25.4,23.2,30.27,NW,313,0.0,0.0,91,0.00,CLR,,0.00,WeatherDisplay:10.37,2013-01-15 12:44:00,
2013-01-15 07:54:00,25.8,23.5,30.27,NW,313,0.0,0.0,91,0.00,CLR,,0.00,WeatherDisplay:10.37,2013-01-15 12:54:00,
2013-01-15 08:04:00,26.8,25.6,30.30,NW,313,0.0,0.0,95,0.00,CLR,,0.00,WeatherDisplay:10.37,2013-01-15 13:04:00,
2013-01-15 08:09:00,27.0,25.8,30.30,NW,313,0.0,1.0,95,0.00,CLR,,0.00,WeatherDisplay:10.37,2013-01-15 13:09:00,
2013-01-15 08:14:00,27.2,26.0,30.30,NW,313,0.0,0.0,95,0.00,CLR,,0.00,WeatherDisplay:10.37,2013-01-15 13:14:00,
2013-01-15 08:19:00,27.1,25.9,30.30,NW,313,0.0,0.0,95,0.00,CLR,,0.00,WeatherDisplay:10.37,2013-01-15 13:19:00,
2013-01-15 08:24:00,27.3,26.0,30.30,NW,313,0.0,1.0,95,0.00,CLR,,0.00,WeatherDisplay:10.37,2013-01-15 13:24:00,
2013-01-15 08:29:00,27.7,26.4,30.30,NW,313,0.0,0.0,95,0.00,CLR,,0.00,WeatherDisplay:10.37,2013-01-15 13:29:00,
2013-01-15 08:34:00,28.2,26.9,30.30,NW,313,0.0,0.0,95,0.00,CLR,,0.00,WeatherDisplay:10.37,2013-01-15 13:34:00,
2013-01-15 08:39:00,28.7,27.5,30.30,NW,313,0.0,1.0,95,0.00,CLR,,0.00,WeatherDisplay:10.37,2013-01-15 13:39:00,
2013-01-15 08:44:00,28.6,27.4,30.30,NW,313,0.0,0.0,95,0.00,CLR,,0.00,WeatherDisplay:10.37,2013-01-15 13:44:00,
2013-01-15 08:49:00,28.9,27.6,30.30,NW,313,0.0,0.0,95,0.00,CLR,,0.00,WeatherDisplay:10.37,2013-01-15 13:49:00,
2013-01-15 08:54:00,29.1,27.9,30.30,NW,313,0.0,0.0,95,0.00,CLR,,0.00,WeatherDisplay:10.37,2013-01-15 13:54:00,
2013-01-15 08:59:00,28.8,27.6,30.30,NW,313,0.0,0.0,95,0.00,CLR,,0.00,WeatherDisplay:10.37,2013-01-15 13:59:00,
2013-01-15 09:04:00,28.5,23.4,30.30,NW,313,0.0,0.0,81,0.00,CLR,,0.00,WeatherDisplay:10.37,2013-01-15 14:04:00,
2013-01-15 09:09:00,28.0,22.9,30.30,NW,313,0.0,0.0,81,0.00,CLR,,0.00,WeatherDisplay:10.37,2013-01-15 14:09:00,
2013-01-15 09:14:00,29.3,24.2,30.30,NW,313,0.0,0.0,81,0.00,CLR,,0.00,WeatherDisplay:10.37,2013-01-15 14:14:00,
2013-01-15 09:19:00,30.6,25.5,30.30,NW,313,0.0,0.0,81,0.00,CLR,,0.00,WeatherDisplay:10.37,2013-01-15 14:19:00,
2013-01-15 09:24:00,31.1,25.9,30.30,NW,313,0.0,1.0,81,0.00,CLR,,0.00,WeatherDisplay:10.37,2013-01-15 14:24:00,
2013-01-15 09:29:00,31.4,26.2,30.30,NW,313,0.0,1.0,81,0.00,CLR,,0.00,WeatherDisplay:10.37,2013-01-15 14:29:00,
2013-01-15 09:34:00,31.7,26.6,30.30,NW,313,0.0,0.0,81,0.00,CLR,,0.00,WeatherDisplay:10.37,2013-01-15 14:34:00,
2013-01-15 09:39:00,32.0,26.8,30.30,NW,313,0.0,1.0,81,0.00,CLR,,0.00,WeatherDisplay:10.37,2013-01-15 14:39:00,
2013-01-15 09:44:00,32.7,27.5,30.30,North,356,1.0,5.0,81,0.00,CLR,,0.00,WeatherDisplay:10.37,2013-01-15 14:44:00,
2013-01-15 09:49:00,33.5,28.3,30.30,North,6,1.0,2.0,81,0.00,CLR,,0.00,WeatherDisplay:10.37,2013-01-15 14:49:00,
2013-01-15 09:54:00,33.4,28.2,30.30,NW,305,1.0,4.0,81,0.00,CLR,,0.00,WeatherDisplay:10.37,2013-01-15 14:54:00,
2013-01-15 09:59:00,32.9,27.7,30.30,WNW,301,1.0,5.0,81,0.00,CLR,,0.00,WeatherDisplay:10.37,2013-01-15 14:59:00,
2013-01-15 10:04:00,33.0,21.0,30.31,NW,308,2.0,5.0,61,0.00,CLR,,0.00,WeatherDisplay:10.37,2013-01-15 15:04:00,
2013-01-15 10:09:00,33.2,21.2,30.31,NW,304,2.0,5.0,61,0.00,CLR,,0.00,WeatherDisplay:10.37,2013-01-15 15:09:00,
2013-01-15 10:14:00,33.2,21.2,30.31,WNW,303,0.0,4.0,61,0.00,CLR,,0.00,WeatherDisplay:10.37,2013-01-15 15:14:00,
2013-01-15 10:19:00,33.5,21.5,30.31,WNW,302,0.0,3.0,61,0.00,CLR,,0.00,WeatherDisplay:10.37,2013-01-15 15:19:00,
2013-01-15 10:24:00,33.4,21.4,30.31,WNW,302,1.0,4.0,61,0.00,CLR,,0.00,WeatherDisplay:10.37,2013-01-15 15:24:00,
2013-01-15 10:29:00,33.5,21.5,30.31,WNW,296,1.0,3.0,61,0.00,CLR,,0.00,WeatherDisplay:10.37,2013-01-15 15:29:00,
2013-01-15 10:34:00,34.1,22.0,30.31,WNW,290,1.0,7.0,61,0.00,CLR,,0.00,WeatherDisplay:10.37,2013-01-15 15:34:00,
2013-01-15 10:39:00,34.1,22.0,30.31,WNW,287,1.0,4.0,61,0.00,CLR,,0.00,WeatherDisplay:10.37,2013-01-15 15:39:00,
2013-01-15 10:44:00,34.9,22.8,30.31,WNW,286,1.0,4.0,61,0.00,CLR,,0.00,WeatherDisplay:10.37,2013-01-15 15:44:00,
2013-01-15 10:49:00,34.7,22.6,30.31,WNW,286,1.0,4.0,61,0.00,CLR,,0.00,WeatherDisplay:10.37,2013-01-15 15:49:00,
2013-01-15 10:54:00,35.3,23.2,30.31,WNW,286,0.0,3.0,61,0.00,CLR,,0.00,WeatherDisplay:10.37,2013-01-15 15:54:00,
2013-01-15 10:59:00,34.6,22.5,30.31,NNW,342,2.0,6.0,61,0.00,CLR,,0.00,WeatherDisplay:10.37,2013-01-15 15:59:00,
2013-01-15 11:04:00,34.0,16.8,30.30,NNW,331,1.0,6.0,49,0.00,CLR,,0.00,WeatherDisplay:10.37,2013-01-15 16:04:00,
2013-01-15 11:09:00,34.0,16.9,30.30,NNW,339,2.0,4.0,49,0.00,CLR,,0.00,WeatherDisplay:10.37,2013-01-15 16:09:00,
2013-01-15 11:14:00,34.8,17.5,30.30,North,1,2.0,7.0,49,0.00,CLR,,0.00,WeatherDisplay:10.37,2013-01-15 16:14:00,
2013-01-15 11:19:00,34.0,16.8,30.30,WNW,294,2.0,6.0,49,0.00,CLR,,0.00,WeatherDisplay:10.37,2013-01-15 16:19:00,
2013-01-15 11:24:00,34.1,16.9,30.30,WNW,298,2.0,5.0,49,0.00,CLR,,0.00,WeatherDisplay:10.37,2013-01-15 16:24:00,
2013-01-15 11:29:00,34.1,16.9,30.30,NW,309,2.0,7.0,49,0.00,CLR,,0.00,WeatherDisplay:10.37,2013-01-15 16:29:00,
2013-01-15 11:39:00,34.0,16.8,30.30,WNW,290,1.0,3.0,49,0.00,CLR,,0.00,WeatherDisplay:10.37,2013-01-15 16:39:00,
2013-01-15 11:44:00,34.1,16.9,30.30,WNW,290,1.0,3.0,49,0.00,CLR,,0.00,WeatherDisplay:10.37,2013-01-15 16:44:00,
2013-01-15 11:49:00,33.6,16.4,30.30,WNW,290,1.0,4.0,49,0.00,CLR,,0.00,WeatherDisplay:10.37,2013-01-15 16:49:00,
2013-01-15 11:54:00,33.6,16.5,30.30,WNW,290,1.0,3.0,49,0.00,CLR,,0.00,WeatherDisplay:10.37,2013-01-15 16:54:00,
2013-01-15 11:59:00,33.6,16.4,30.30,WNW,299,2.0,5.0,49,0.00,CLR,,0.00,WeatherDisplay:10.37,2013-01-15 16:59:00,
2013-01-15 12:04:00,33.5,14.4,30.27,WNW,303,0.0,2.0,45,0.00,CLR,,0.00,WeatherDisplay:10.37,2013-01-15 17:04:00,
2013-01-15 12:09:00,34.0,14.8,30.27,WNW,303,0.0,1.0,45,0.00,CLR,,0.00,WeatherDisplay:10.37,2013-01-15 17:09:00,
2013-01-15 12:14:00,35.1,15.9,30.27,WNW,303,0.0,2.0,45,0.00,CLR,,0.00,WeatherDisplay:10.37,2013-01-15 17:14:00,
2013-01-15 12:19:00,34.5,15.4,30.27,WNW,303,0.0,2.0,45,0.00,CLR,,0.00,WeatherDisplay:10.37,2013-01-15 17:19:00,
2013-01-15 12:24:00,34.3,15.2,30.27,WNW,303,1.0,2.0,45,0.00,CLR,,0.00,WeatherDisplay:10.37,2013-01-15 17:24:00,
2013-01-15 12:29:00,35.4,16.1,30.27,WNW,294,0.0,3.0,45,0.00,CLR,,0.00,WeatherDisplay:10.37,2013-01-15 17:29:00,
2013-01-15 12:34:00,34.4,15.2,30.27,WSW,254,1.0,2.0,45,0.00,CLR,,0.00,WeatherDisplay:10.37,2013-01-15 17:34:00,
2013-01-15 12:39:00,35.0,15.7,30.27,WSW,245,2.0,3.0,45,0.00,CLR,,0.00,WeatherDisplay:10.37,2013-01-15 17:39:00,
2013-01-15 12:44:00,36.1,16.8,30.27,WSW,249,1.0,4.0,45,0.00,CLR,,0.00,WeatherDisplay:10.37,2013-01-15 17:44:00,
2013-01-15 12:49:00,34.9,15.7,30.27,West,264,2.0,4.0,45,0.00,CLR,,0.00,WeatherDisplay:10.37,2013-01-15 17:49:00,
2013-01-15 12:54:00,34.8,15.6,30.27,WNW,295,1.0,3.0,45,0.00,CLR,,0.00,WeatherDisplay:10.37,2013-01-15 17:54:00,
2013-01-15 12:59:00,35.6,16.3,30.27,NW,306,1.0,3.0,45,0.00,CLR,,0.00,WeatherDisplay:10.37,2013-01-15 17:59:00,
2013-01-15 13:04:00,35.4,16.1,30.27,NW,306,1.0,2.0,45,0.00,CLR,,0.00,WeatherDisplay:10.37,2013-01-15 18:04:00,
2013-01-15 13:09:00,35.5,16.3,30.27,NW,306,1.0,5.0,45,0.00,CLR,,0.00,WeatherDisplay:10.37,2013-01-15 18:09:00,
2013-01-15 13:14:00,35.6,18.3,30.26,NW,306,0.0,2.0,49,0.00,SCT,,0.00,WeatherDisplay:10.37,2013-01-15 18:14:00,
2013-01-15 13:19:00,35.6,18.3,30.26,NW,306,1.0,3.0,49,0.00,SCT,,0.00,WeatherDisplay:10.37,2013-01-15 18:19:00,
2013-01-15 13:24:00,35.4,18.1,30.26,NW,306,0.0,3.0,49,0.00,SCT,,0.00,WeatherDisplay:10.37,2013-01-15 18:24:00,
2013-01-15 13:29:00,36.7,19.3,30.26,NW,306,0.0,2.0,49,0.00,SCT,,0.00,WeatherDisplay:10.37,2013-01-15 18:29:00,
2013-01-15 13:39:00,35.9,18.6,30.26,WSW,239,1.0,4.0,49,0.00,SCT,,0.00,WeatherDisplay:10.37,2013-01-15 18:39:00,
2013-01-15 13:44:00,35.8,18.4,30.26,SW,222,2.0,4.0,49,0.00,SCT,,0.00,WeatherDisplay:10.37,2013-01-15 18:44:00,
2013-01-15 13:49:00,34.9,17.7,30.26,WSW,241,0.0,4.0,49,0.00,SCT,,0.00,WeatherDisplay:10.37,2013-01-15 18:49:00,
2013-01-15 13:54:00,35.1,17.8,30.26,West,268,1.0,4.0,49,0.00,SCT,,0.00,WeatherDisplay:10.37,2013-01-15 18:54:00,
2013-01-15 13:59:00,34.1,16.9,30.26,West,278,2.0,4.0,49,0.00,SCT,,0.00,WeatherDisplay:10.37,2013-01-15 18:59:00,
2013-01-15 14:04:00,34.3,17.1,30.26,WNW,296,2.0,4.0,49,0.00,SCT,,0.00,WeatherDisplay:10.37,2013-01-15 19:04:00,
2013-01-15 14:09:00,33.7,16.5,30.26,NW,307,1.0,4.0,49,0.00,SCT,,0.00,WeatherDisplay:10.37,2013-01-15 19:09:00,
2013-01-15 14:14:00,33.6,15.5,30.25,NW,306,2.0,4.0,47,0.00,FEW,,0.00,WeatherDisplay:10.37,2013-01-15 19:14:00,
2013-01-15 14:19:00,33.7,15.6,30.25,NW,306,0.0,3.0,47,0.00,FEW,,0.00,WeatherDisplay:10.37,2013-01-15 19:19:00,
2013-01-15 14:24:00,33.2,15.1,30.25,NW,306,2.0,4.0,47,0.00,FEW,,0.00,WeatherDisplay:10.37,2013-01-15 19:24:00,
2013-01-15 14:29:00,32.9,14.9,30.25,NW,306,2.0,4.0,47,0.00,FEW,,0.00,WeatherDisplay:10.37,2013-01-15 19:29:00,
2013-01-15 14:34:00,32.7,14.6,30.25,NW,306,2.0,4.0,47,0.00,FEW,,0.00,WeatherDisplay:10.37,2013-01-15 19:34:00,
2013-01-15 14:39:00,32.8,14.7,30.25,NW,306,2.0,4.0,47,0.00,FEW,,0.00,WeatherDisplay:10.37,2013-01-15 19:39:00,
2013-01-15 14:44:00,32.5,14.5,30.25,NW,309,2.0,5.0,47,0.00,FEW,,0.00,WeatherDisplay:10.37,2013-01-15 19:44:00,
2013-01-15 14:49:00,32.5,14.5,30.25,NW,312,1.0,3.0,47,0.00,FEW,,0.00,WeatherDisplay:10.37,2013-01-15 19:49:00,
2013-01-15 14:54:00,32.4,14.4,30.25,NW,313,2.0,4.0,47,0.00,FEW,,0.00,WeatherDisplay:10.37,2013-01-15 19:54:00,
2013-01-15 14:59:00,32.2,14.2,30.25,NW,313,1.0,4.0,47,0.00,FEW,,0.00,WeatherDisplay:10.37,2013-01-15 19:59:00,
2013-01-15 15:04:00,32.2,14.2,30.25,NW,313,1.0,4.0,47,0.00,FEW,,0.00,WeatherDisplay:10.37,2013-01-15 20:04:00,
2013-01-15 15:09:00,32.1,14.1,30.25,NW,313,1.0,4.0,47,0.00,FEW,,0.00,WeatherDisplay:10.37,2013-01-15 20:09:00,
2013-01-15 15:14:00,32.1,15.1,30.26,NW,313,1.0,4.0,49,0.00,CLR,,0.00,WeatherDisplay:10.37,2013-01-15 20:14:00,
2013-01-15 15:19:00,31.9,14.9,30.26,NW,313,0.0,3.0,49,0.00,CLR,,0.00,WeatherDisplay:10.37,2013-01-15 20:19:00,
2013-01-15 15:24:00,32.0,15.0,30.26,NW,313,0.0,2.0,49,0.00,CLR,,0.00,WeatherDisplay:10.37,2013-01-15 20:24:00,
2013-01-15 15:29:00,31.9,14.9,30.26,NW,313,0.0,2.0,49,0.00,CLR,,0.00,WeatherDisplay:10.37,2013-01-15 20:29:00,
2013-01-15 15:39:00,32.1,15.1,30.26,NW,313,0.0,2.0,49,0.00,CLR,,0.00,WeatherDisplay:10.37,2013-01-15 20:39:00,
2013-01-15 15:44:00,32.0,15.0,30.26,NW,313,0.0,1.0,49,0.00,CLR,,0.00,WeatherDisplay:10.37,2013-01-15 20:44:00,
2013-01-15 15:49:00,31.9,14.9,30.26,NW,313,0.0,2.0,49,0.00,CLR,,0.00,WeatherDisplay:10.37,2013-01-15 20:49:00,
2013-01-15 15:54:00,31.9,14.9,30.26,NW,313,0.0,2.0,49,0.00,CLR,,0.00,WeatherDisplay:10.37,2013-01-15 20:54:00,
2013-01-15 15:59:00,31.7,14.7,30.26,NW,313,0.0,0.0,49,0.00,CLR,,0.00,WeatherDisplay:10.37,2013-01-15 20:59:00,
2013-01-15 16:04:00,31.6,14.6,30.26,NW,313,0.0,0.0,49,0.00,CLR,,0.00,WeatherDisplay:10.37,2013-01-15 21:04:00,
2013-01-15 16:09:00,31.6,14.6,30.26,NW,313,0.0,1.0,49,0.00,CLR,,0.00,WeatherDisplay:10.37,2013-01-15 21:09:00,
2013-01-15 16:14:00,31.4,17.5,30.24,NW,313,0.0,1.0,56,0.00,CLR,,0.00,WeatherDisplay:10.37,2013-01-15 21:14:00,
2013-01-15 16:19:00,31.4,17.5,30.24,NW,313,0.0,1.0,56,0.00,CLR,,0.00,WeatherDisplay:10.37,2013-01-15 21:19:00,
2013-01-15 16:24:00,31.3,17.4,30.24,NW,313,0.0,0.0,56,0.00,CLR,,0.00,WeatherDisplay:10.37,2013-01-15 21:24:00,
2013-01-15 16:29:00,31.1,17.2,30.24,NW,313,0.0,1.0,56,0.00,CLR,,0.00,WeatherDisplay:10.37,2013-01-15 21:29:00,
2013-01-15 16:34:00,31.0,17.1,30.24,NW,313,0.0,1.0,56,0.00,CLR,,0.00,WeatherDisplay:10.37,2013-01-15 21:34:00,
2013-01-15 16:39:00,30.8,16.9,30.24,NW,313,0.0,0.0,56,0.00,CLR,,0.00,WeatherDisplay:10.37,2013-01-15 21:39:00,
2013-01-15 16:44:00,30.6,16.7,30.24,NW,313,0.0,1.0,56,0.00,CLR,,0.00,WeatherDisplay:10.37,2013-01-15 21:44:00,
2013-01-15 16:49:00,30.8,16.9,30.24,NW,313,0.0,1.0,56,0.00,CLR,,0.00,WeatherDisplay:10.37,2013-01-15 21:49:00,
2013-01-15 16:54:00,30.7,16.8,30.24,NW,313,0.0,1.0,56,0.00,CLR,,0.00,WeatherDisplay:10.37,2013-01-15 21:54:00,
2013-01-15 16:59:00,30.7,16.8,30.24,NW,313,0.0,1.0,56,0.00,CLR,,0.00,WeatherDisplay:10.37,2013-01-15 21:59:00,
2013-01-15 17:04:00,30.6,17.6,30.26,NW,313,0.0,0.0,58,0.00,CLR,,0.00,WeatherDisplay:10.37,2013-01-15 22:04:00,
2013-01-15 17:09:00,30.5,17.4,30.26,NW,313,0.0,0.0,58,0.00,CLR,,0.00,WeatherDisplay:10.37,2013-01-15 22:09:00,
2013-01-15 17:14:00,30.3,17.3,30.26,NW,313,0.0,0.0,58,0.00,CLR,,0.00,WeatherDisplay:10.37,2013-01-15 22:14:00,
2013-01-15 17:19:00,30.3,17.3,30.26,NW,313,0.0,0.0,58,0.00,CLR,,0.00,WeatherDisplay:10.37,2013-01-15 22:19:00,
2013-01-15 17:24:00,30.2,17.2,30.26,NW,313,0.0,1.0,58,0.00,CLR,,0.00,WeatherDisplay:10.37,2013-01-15 22:24:00,
2013-01-15 17:29:00,30.3,17.3,30.26,NW,313,0.0,1.0,58,0.00,CLR,,0.00,WeatherDisplay:10.37,2013-01-15 22:29:00,
2013-01-15 17:34:00,30.3,17.3,30.26,NW,313,0.0,1.0,58,0.00,CLR,,0.00,WeatherDisplay:10.37,2013-01-15 22:34:00,
2013-01-15 17:39:00,30.5,17.4,30.26,NW,313,0.0,1.0,58,0.00,CLR,,0.00,WeatherDisplay:10.37,2013-01-15 22:39:00,
2013-01-15 17:44:00,30.5,17.5,30.26,NW,313,0.0,1.0,58,0.00,CLR,,0.00,WeatherDisplay:10.37,2013-01-15 22:44:00,
2013-01-15 17:49:00,30.3,17.3,30.26,NW,313,0.0,0.0,58,0.00,CLR,,0.00,WeatherDisplay:10.37,2013-01-15 22:49:00,
2013-01-15 17:59:00,30.0,17.0,30.26,NW,313,0.0,0.0,58,0.00,CLR,,0.00,WeatherDisplay:10.37,2013-01-15 22:59:00,
2013-01-15 18:04:00,29.5,17.3,30.26,NW,313,0.0,0.0,60,0.00,CLR,,0.00,WeatherDisplay:10.37,2013-01-15 23:04:00,
2013-01-15 18:09:00,28.9,16.7,30.26,NW,313,0.0,0.0,60,0.00,CLR,,0.00,WeatherDisplay:10.37,2013-01-15 23:09:00,
2013-01-15 18:14:00,28.5,16.3,30.26,NW,313,0.0,0.0,60,0.00,CLR,,0.00,WeatherDisplay:10.37,2013-01-15 23:14:00,
2013-01-15 18:19:00,28.6,16.5,30.26,NW,313,0.0,0.0,60,0.00,CLR,,0.00,WeatherDisplay:10.37,2013-01-15 23:19:00,
2013-01-15 18:24:00,28.6,16.4,30.26,NW,313,0.0,0.0,60,0.00,CLR,,0.00,WeatherDisplay:10.37,2013-01-15 23:24:00,
2013-01-15 18:29:00,27.8,15.7,30.26,NW,313,0.0,1.0,60,0.00,CLR,,0.00,WeatherDisplay:10.37,2013-01-15 23:29:00,
2013-01-15 18:39:00,28.1,16.0,30.26,NW,313,0.0,0.0,60,0.00,CLR,,0.00,WeatherDisplay:10.37,2013-01-15 23:39:00,
2013-01-15 18:44:00,27.7,15.6,30.26,NW,313,0.0,0.0,60,0.00,CLR,,0.00,WeatherDisplay:10.37,2013-01-15 23:44:00,
2013-01-15 18:49:00,27.7,15.6,30.26,NW,313,0.0,0.0,60,0.00,CLR,,0.00,WeatherDisplay:10.37,2013-01-15 23:49:00,
2013-01-15 18:54:00,28.0,15.9,30.26,NW,313,0.0,0.0,60,0.00,CLR,,0.00,WeatherDisplay:10.37,2013-01-15 23:54:00,
2013-01-15 18:59:00,27.6,15.5,30.26,NW,313,0.0,0.0,60,0.00,CLR,,0.00,WeatherDisplay:10.37,2013-01-15 23:59:00,
2013-01-15 19:04:00,27.6,15.5,30.26,NW,313,0.0,0.0,60,0.00,CLR,,0.00,WeatherDisplay:10.37,2013-01-16 00:04:00,
2013-01-15 19:09:00,27.6,15.5,30.26,NW,313,0.0,0.0,60,0.00,CLR,,0.00,WeatherDisplay:10.37,2013-01-16 00:09:00,
2013-01-15 19:14:00,27.5,15.4,30.27,NW,313,0.0,0.0,60,0.00,CLR,,0.00,WeatherDisplay:10.37,2013-01-16 00:14:00,
2013-01-15 19:19:00,27.3,15.2,30.27,NW,313,0.0,0.0,60,0.00,CLR,,0.00,WeatherDisplay:10.37,2013-01-16 00:19:00,
2013-01-15 19:24:00,27.2,15.1,30.27,NW,313,0.0,0.0,60,0.00,CLR,,0.00,WeatherDisplay:10.37,2013-01-16 00:24:00,
2013-01-15 19:29:00,26.9,14.9,30.27,NW,313,0.0,0.0,60,0.00,CLR,,0.00,WeatherDisplay:10.37,2013-01-16 00:29:00,
2013-01-15 19:34:00,26.8,14.8,30.27,NW,313,0.0,0.0,60,0.00,CLR,,0.00,WeatherDisplay:10.37,2013-01-16 00:34:00,
2013-01-15 19:39:00,26.6,14.6,30.27,NW,313,0.0,1.0,60,0.00,CLR,,0.00,WeatherDisplay:10.37,2013-01-16 00:39:00,
2013-01-15 19:44:00,27.0,15.0,30.27,NW,313,0.0,0.0,60,0.00,CLR,,0.00,WeatherDisplay:10.37,2013-01-16 00:44:00,
2013-01-15 19:49:00,27.0,15.0,30.27,NW,313,0.0,0.0,60,0.00,CLR,,0.00,WeatherDisplay:10.37,2013-01-16 00:49:00,
2013-01-15 19:54:00,27.2,15.1,30.27,NW,313,0.0,0.0,60,0.00,CLR,,0.00,WeatherDisplay:10.37,2013-01-16 00:54:00,
2013-01-15 19:59:00,27.2,15.1,30.27,NW,313,0.0,0.0,60,0.00,CLR,,0.00,WeatherDisplay:10.37,2013-01-16 00:59:00,
2013-01-15 20:04:00,27.0,21.9,30.27,NW,313,0.0,0.0,81,0.00,CLR,,0.00,WeatherDisplay:10.37,2013-01-16 01:04:00,
2013-01-15 20:09:00,26.6,21.6,30.27,NW,313,0.0,0.0,81,0.00,CLR,,0.00,WeatherDisplay:10.37,2013-01-16 01:09:00,
2013-01-15 20:14:00,26.9,21.8,30.27,NW,313,0.0,0.0,81,0.00,CLR,,0.00,WeatherDisplay:10.37,2013-01-16 01:14:00,
2013-01-15 20:19:00,26.6,21.6,30.27,NW,313,0.0,0.0,81,0.00,CLR,,0.00,WeatherDisplay:10.37,2013-01-16 01:19:00,
2013-01-15 20:24:00,26.5,21.5,30.27,NW,313,0.0,0.0,81,0.00,CLR,,0.00,WeatherDisplay:10.37,2013-01-16 01:24:00,
2013-01-15 20:29:00,26.6,21.6,30.27,NW,313,0.0,0.0,81,0.00,CLR,,0.00,WeatherDisplay:10.37,2013-01-16 01:29:00,
2013-01-15 20:34:00,26.6,21.6,30.27,NW,313,0.0,0.0,81,0.00,CLR,,0.00,WeatherDisplay:10.37,2013-01-16 01:34:00,
2013-01-15 20:39:00,26.6,21.5,30.27,NW,313,0.0,0.0,81,0.00,CLR,,0.00,WeatherDisplay:10.37,2013-01-16 01:39:00,
2013-01-15 20:44:00,26.8,21.8,30.27,NW,313,0.0,0.0,81,0.00,CLR,,0.00,WeatherDisplay:10.37,2013-01-16 01:44:00,
2013-01-15 20:49:00,26.8,21.7,30.27,NW,313,0.0,0.0,81,0.00,CLR,,0.00,WeatherDisplay:10.37,2013-01-16 01:49:00,
2013-01-15 20:54:00,26.4,21.3,30.27,NW,313,0.0,0.0,81,0.00,CLR,,0.00,WeatherDisplay:10.37,2013-01-16 01:54:00,
2013-01-15 20:59:00,26.2,21.2,30.27,NW,313,0.0,0.0,81,0.00,CLR,,0.00,WeatherDisplay:10.37,2013-01-16 01:59:00,
2013-01-15 21:04:00,26.2,22.0,30.26,NW,313,0.0,0.0,84,0.00,CLR,,0.00,WeatherDisplay:10.37,2013-01-16 02:04:00,
2013-01-15 21:09:00,26.2,22.0,30.26,NW,313,0.0,0.0,84,0.00,CLR,,0.00,WeatherDisplay:10.37,2013-01-16 02:09:00,
2013-01-15 21:14:00,26.4,22.2,30.26,NW,313,0.0,0.0,84,0.00,CLR,,0.00,WeatherDisplay:10.37,2013-01-16 02:14:00,
2013-01-15 21:19:00,26.3,22.1,30.26,NW,313,0.0,0.0,84,0.00,CLR,,0.00,WeatherDisplay:10.37,2013-01-16 02:19:00,
2013-01-15 21:24:00,26.2,22.0,30.26,NW,313,0.0,0.0,84,0.00,CLR,,0.00,WeatherDisplay:10.37,2013-01-16 02:24:00,
2013-01-15 21:29:00,26.3,22.1,30.26,NW,313,0.0,0.0,84,0.00,CLR,,0.00,WeatherDisplay:10.37,2013-01-16 02:29:00,
2013-01-15 21:34:00,26.2,22.1,30.26,NW,313,0.0,0.0,84,0.00,CLR,,0.00,WeatherDisplay:10.37,2013-01-16 02:34:00,
2013-01-15 21:39:00,26.6,22.4,30.26,NW,313,0.0,0.0,84,0.00,CLR,,0.00,WeatherDisplay:10.37,2013-01-16 02:39:00,
2013-01-15 21:44:00,26.6,22.4,30.26,NW,313,0.0,0.0,84,0.00,CLR,,0.00,WeatherDisplay:10.37,2013-01-16 02:44:00,
2013-01-15 21:49:00,26.5,22.3,30.26,NW,313,0.0,0.0,84,0.00,CLR,,0.00,WeatherDisplay:10.37,2013-01-16 02:49:00,
2013-01-15 21:54:00,26.1,21.9,30.26,NW,313,0.0,0.0,84,0.00,CLR,,0.00,WeatherDisplay:10.37,2013-01-16 02:54:00,
2013-01-15 21:59:00,26.4,22.2,30.26,NW,313,0.0,0.0,84,0.00,CLR,,0.00,WeatherDisplay:10.37,2013-01-16 02:59:00,
2013-01-15 22:04:00,26.5,21.4,30.24,NW,313,0.0,0.0,81,0.00,CLR,,0.00,WeatherDisplay:10.37,2013-01-16 03:04:00,
2013-01-15 22:09:00,26.3,21.2,30.24,NW,313,0.0,0.0,81,0.00,CLR,,0.00,WeatherDisplay:10.37,2013-01-16 03:09:00,
2013-01-15 22:14:00,26.1,21.1,30.24,NW,313,0.0,0.0,81,0.00,CLR,,0.00,WeatherDisplay:10.37,2013-01-16 03:14:00,
2013-01-15 22:19:00,25.9,20.9,30.24,NW,313,0.0,0.0,81,0.00,CLR,,0.00,WeatherDisplay:10.37,2013-01-16 03:19:00,
2013-01-15 22:24:00,26.0,21.0,30.24,NW,313,0.0,0.0,81,0.00,CLR,,0.00,WeatherDisplay:10.37,2013-01-16 03:24:00,
2013-01-15 22:29:00,26.2,21.1,30.24,NW,313,0.0,0.0,81,0.00,CLR,,0.00,WeatherDisplay:10.37,2013-01-16 03:29:00,
2013-01-15 22:34:00,26.2,21.2,30.24,NW,313,0.0,0.0,81,0.00,CLR,,0.00,WeatherDisplay:10.37,2013-01-16 03:34:00,
2013-01-15 22:39:00,26.3,21.2,30.24,NW,313,0.0,0.0,81,0.00,CLR,,0.00,WeatherDisplay:10.37,2013-01-16 03:39:00,
2013-01-15 22:49:00,26.4,21.3,30.24,NW,313,0.0,0.0,81,0.00,CLR,,0.00,WeatherDisplay:10.37,2013-01-16 03:49:00,
2013-01-15 22:54:00,26.2,21.2,30.24,NW,313,0.0,0.0,81,0.00,CLR,,0.00,WeatherDisplay:10.37,2013-01-16 03:54:00,
2013-01-15 22:59:00,26.0,21.0,30.24,NW,313,0.0,0.0,81,0.00,CLR,,0.00,WeatherDisplay:10.37,2013-01-16 03:59:00,
2013-01-15 23:04:00,26.2,22.0,30.24,NW,313,0.0,0.0,84,0.00,CLR,,0.00,WeatherDisplay:10.37,2013-01-16 04:04:00,
2013-01-15 23:09:00,26.5,22.4,30.24,NW,313,0.0,0.0,84,0.00,CLR,,0.00,WeatherDisplay:10.37,2013-01-16 04:09:00,
2013-01-15 23:19:00,25.9,21.7,30.24,NW,313,0.0,0.0,84,0.00,CLR,,0.00,WeatherDisplay:10.37,2013-01-16 04:19:00,
2013-01-15 23:24:00,26.0,21.8,30.24,NW,313,0.0,0.0,84,0.00,CLR,,0.00,WeatherDisplay:10.37,2013-01-16 04:24:00,
2013-01-15 23:29:00,26.4,22.2,30.24,NW,313,0.0,0.0,84,0.00,CLR,,0.00,WeatherDisplay:10.37,2013-01-16 04:29:00,
2013-01-15 23:34:00,26.4,22.2,30.24,NW,313,0.0,0.0,84,0.00,CLR,,0.00,WeatherDisplay:10.37,2013-01-16 04:34:00,
2013-01-15 23:44:00,26.6,22.4,30.24,NW,313,0.0,0.0,84,0.00,CLR,,0.00,WeatherDisplay:10.37,2013-01-16 04:44:00,
2013-01-15 23:49:00,26.6,22.4,30.24,NW,313,0.0,0.0,84,0.00,CLR,,0.00,WeatherDisplay:10.37,2013-01-16 04:49:00,
2013-01-15 23:54:00,26.4,22.2,30.24,NW,313,0.0,0.0,84,0.00,CLR,,0.00,WeatherDisplay:10.37,2013-01-16 04:54:00,
2013-01-15 23:59:00,26.7,22.5,30.24,NW,313,0.0,0.0,84,0.00,CLR,,0.00,WeatherDisplay:10.37,2013-01-16 04:59:00,